<?xml version="1.0" encoding="UTF-8" standalone="no" ?>
<gpx xmlns="http://www.topografix.com/GPX/1/1" xmlns:xsi="http://www.w3.org/2001/XMLSchema-instance" xsi:schemaLocation="http://www.topografix.com/GPX/1/1 http://www.topografix.com/GPX/1/1/gpx.xsd" version="1.1" creator="VisuGPX - https://www.visugpx.com">
  <metadata>
    <name>rando ramml 18-07-2019</name>
    <desc><![CDATA[Rando RAMML du 18-07-2019]]></desc>
  </metadata>
  <trk>
    <name><![CDATA[Mon parcours]]></name>
    <trkseg>
      <trkpt lat="45.13459" lon="3.99068">
        <ele>672</ele>
        <time>2019-07-09T19:45:25Z</time>
      </trkpt>
      <trkpt lat="45.13462" lon="3.99068">
        <ele>672</ele>
        <time>2019-07-09T19:45:25Z</time>
      </trkpt>
      <trkpt lat="45.13461" lon="3.99096">
        <ele>671</ele>
        <time>2019-07-09T19:45:25Z</time>
      </trkpt>
      <trkpt lat="45.13462" lon="3.99102">
        <ele>670</ele>
        <time>2019-07-09T19:45:25Z</time>
      </trkpt>
      <trkpt lat="45.13448" lon="3.99091">
        <ele>670</ele>
        <time>2019-07-09T19:45:25Z</time>
      </trkpt>
      <trkpt lat="45.13445" lon="3.99098">
        <ele>669</ele>
        <time>2019-07-09T19:45:25Z</time>
      </trkpt>
      <trkpt lat="45.13436" lon="3.99114">
        <ele>668</ele>
        <time>2019-07-09T19:45:25Z</time>
      </trkpt>
      <trkpt lat="45.13417" lon="3.99142">
        <ele>667</ele>
        <time>2019-07-09T19:45:25Z</time>
      </trkpt>
      <trkpt lat="45.13409" lon="3.99149">
        <ele>667</ele>
        <time>2019-07-09T19:45:25Z</time>
      </trkpt>
      <trkpt lat="45.13402" lon="3.99154">
        <ele>667</ele>
        <time>2019-07-09T19:45:25Z</time>
      </trkpt>
      <trkpt lat="45.13397" lon="3.99156">
        <ele>667</ele>
        <time>2019-07-09T19:45:25Z</time>
      </trkpt>
      <trkpt lat="45.13385" lon="3.99157">
        <ele>666</ele>
        <time>2019-07-09T19:45:25Z</time>
      </trkpt>
      <trkpt lat="45.13377" lon="3.99157">
        <ele>666</ele>
        <time>2019-07-09T19:45:25Z</time>
      </trkpt>
      <trkpt lat="45.13367" lon="3.99156">
        <ele>666</ele>
        <time>2019-07-09T19:45:25Z</time>
      </trkpt>
      <trkpt lat="45.13335" lon="3.99162">
        <ele>665</ele>
        <time>2019-07-09T19:45:25Z</time>
      </trkpt>
      <trkpt lat="45.13297" lon="3.99178">
        <ele>665</ele>
        <time>2019-07-09T19:45:25Z</time>
      </trkpt>
      <trkpt lat="45.13213" lon="3.9923">
        <ele>666</ele>
        <time>2019-07-09T19:45:25Z</time>
      </trkpt>
      <trkpt lat="45.13187" lon="3.99241">
        <ele>667</ele>
        <time>2019-07-09T19:45:25Z</time>
      </trkpt>
      <trkpt lat="45.13179" lon="3.99241">
        <ele>667</ele>
        <time>2019-07-09T19:45:25Z</time>
      </trkpt>
      <trkpt lat="45.13171" lon="3.99239">
        <ele>667</ele>
        <time>2019-07-09T19:45:25Z</time>
      </trkpt>
      <trkpt lat="45.13085" lon="3.99209">
        <ele>664</ele>
        <time>2019-07-09T19:45:25Z</time>
      </trkpt>
      <trkpt lat="45.13077" lon="3.99207">
        <ele>664</ele>
        <time>2019-07-09T19:45:25Z</time>
      </trkpt>
      <trkpt lat="45.13059" lon="3.9921">
        <ele>663</ele>
        <time>2019-07-09T19:45:25Z</time>
      </trkpt>
      <trkpt lat="45.13043" lon="3.99216">
        <ele>664</ele>
        <time>2019-07-09T19:45:25Z</time>
      </trkpt>
      <trkpt lat="45.13029" lon="3.99224">
        <ele>664</ele>
        <time>2019-07-09T19:45:25Z</time>
      </trkpt>
      <trkpt lat="45.13022" lon="3.9923">
        <ele>664</ele>
        <time>2019-07-09T19:45:25Z</time>
      </trkpt>
      <trkpt lat="45.13022" lon="3.9923">
        <ele>664</ele>
        <time>2019-07-09T19:45:25Z</time>
      </trkpt>
      <trkpt lat="45.13015" lon="3.99236">
        <ele>665</ele>
        <time>2019-07-09T19:45:25Z</time>
      </trkpt>
      <trkpt lat="45.13003" lon="3.99249">
        <ele>666</ele>
        <time>2019-07-09T19:45:25Z</time>
      </trkpt>
      <trkpt lat="45.12961" lon="3.99311">
        <ele>667</ele>
        <time>2019-07-09T19:45:25Z</time>
      </trkpt>
      <trkpt lat="45.12911" lon="3.99361">
        <ele>667</ele>
        <time>2019-07-09T19:45:25Z</time>
      </trkpt>
      <trkpt lat="45.12893" lon="3.99387">
        <ele>668</ele>
        <time>2019-07-09T19:45:25Z</time>
      </trkpt>
      <trkpt lat="45.12886" lon="3.99402">
        <ele>669</ele>
        <time>2019-07-09T19:45:25Z</time>
      </trkpt>
      <trkpt lat="45.1285" lon="3.99499">
        <ele>675</ele>
        <time>2019-07-09T19:45:25Z</time>
      </trkpt>
      <trkpt lat="45.12829" lon="3.99536">
        <ele>676</ele>
        <time>2019-07-09T19:45:25Z</time>
      </trkpt>
      <trkpt lat="45.12811" lon="3.99575">
        <ele>677</ele>
        <time>2019-07-09T19:45:25Z</time>
      </trkpt>
      <trkpt lat="45.12805" lon="3.99592">
        <ele>677</ele>
        <time>2019-07-09T19:45:25Z</time>
      </trkpt>
      <trkpt lat="45.12799" lon="3.99615">
        <ele>679</ele>
        <time>2019-07-09T19:45:25Z</time>
      </trkpt>
      <trkpt lat="45.12797" lon="3.99638">
        <ele>681</ele>
        <time>2019-07-09T19:45:25Z</time>
      </trkpt>
      <trkpt lat="45.12798" lon="3.99667">
        <ele>683</ele>
        <time>2019-07-09T19:45:25Z</time>
      </trkpt>
      <trkpt lat="45.12805" lon="3.99738">
        <ele>686</ele>
        <time>2019-07-09T19:45:25Z</time>
      </trkpt>
      <trkpt lat="45.12805" lon="3.99742">
        <ele>686</ele>
        <time>2019-07-09T19:45:25Z</time>
      </trkpt>
      <trkpt lat="45.12805" lon="3.99742">
        <ele>686</ele>
        <time>2019-07-09T19:45:25Z</time>
      </trkpt>
      <trkpt lat="45.12805" lon="3.99762">
        <ele>685</ele>
        <time>2019-07-09T19:45:25Z</time>
      </trkpt>
      <trkpt lat="45.12802" lon="3.9978">
        <ele>684</ele>
        <time>2019-07-09T19:45:25Z</time>
      </trkpt>
      <trkpt lat="45.12801" lon="3.99787">
        <ele>684</ele>
        <time>2019-07-09T19:45:25Z</time>
      </trkpt>
      <trkpt lat="45.1281" lon="3.99769">
        <ele>686</ele>
        <time>2019-07-09T19:45:25Z</time>
      </trkpt>
      <trkpt lat="45.12822" lon="3.99758">
        <ele>689</ele>
        <time>2019-07-09T19:45:25Z</time>
      </trkpt>
      <trkpt lat="45.12834" lon="3.99737">
        <ele>693</ele>
        <time>2019-07-09T19:45:25Z</time>
      </trkpt>
      <trkpt lat="45.12838" lon="3.99725">
        <ele>695</ele>
        <time>2019-07-09T19:45:25Z</time>
      </trkpt>
      <trkpt lat="45.12846" lon="3.99716">
        <ele>696</ele>
        <time>2019-07-09T19:45:25Z</time>
      </trkpt>
      <trkpt lat="45.1286" lon="3.99728">
        <ele>699</ele>
        <time>2019-07-09T19:45:25Z</time>
      </trkpt>
      <trkpt lat="45.12871" lon="3.9975">
        <ele>701</ele>
        <time>2019-07-09T19:45:25Z</time>
      </trkpt>
      <trkpt lat="45.12881" lon="3.99773">
        <ele>701</ele>
        <time>2019-07-09T19:45:25Z</time>
      </trkpt>
      <trkpt lat="45.129" lon="3.99806">
        <ele>703</ele>
        <time>2019-07-09T19:45:25Z</time>
      </trkpt>
      <trkpt lat="45.12913" lon="3.99839">
        <ele>703</ele>
        <time>2019-07-09T19:45:25Z</time>
      </trkpt>
      <trkpt lat="45.12927" lon="3.99867">
        <ele>703</ele>
        <time>2019-07-09T19:45:25Z</time>
      </trkpt>
      <trkpt lat="45.12941" lon="3.99893">
        <ele>705</ele>
        <time>2019-07-09T19:45:25Z</time>
      </trkpt>
      <trkpt lat="45.12959" lon="3.99945">
        <ele>707</ele>
        <time>2019-07-09T19:45:25Z</time>
      </trkpt>
      <trkpt lat="45.1295" lon="3.99916">
        <ele>706</ele>
        <time>2019-07-09T19:45:25Z</time>
      </trkpt>
      <trkpt lat="45.12938" lon="3.99882">
        <ele>705</ele>
        <time>2019-07-09T19:45:25Z</time>
      </trkpt>
      <trkpt lat="45.12909" lon="3.99832">
        <ele>703</ele>
        <time>2019-07-09T19:45:25Z</time>
      </trkpt>
      <trkpt lat="45.12897" lon="3.99802">
        <ele>703</ele>
        <time>2019-07-09T19:45:25Z</time>
      </trkpt>
      <trkpt lat="45.12876" lon="3.99759">
        <ele>701</ele>
        <time>2019-07-09T19:45:25Z</time>
      </trkpt>
      <trkpt lat="45.12863" lon="3.99729">
        <ele>700</ele>
        <time>2019-07-09T19:45:25Z</time>
      </trkpt>
      <trkpt lat="45.12846" lon="3.99718">
        <ele>696</ele>
        <time>2019-07-09T19:45:25Z</time>
      </trkpt>
      <trkpt lat="45.12836" lon="3.9973">
        <ele>694</ele>
        <time>2019-07-09T19:45:25Z</time>
      </trkpt>
      <trkpt lat="45.12823" lon="3.99755">
        <ele>689</ele>
        <time>2019-07-09T19:45:25Z</time>
      </trkpt>
      <trkpt lat="45.1281" lon="3.99766">
        <ele>686</ele>
        <time>2019-07-09T19:45:25Z</time>
      </trkpt>
      <trkpt lat="45.12804" lon="3.99782">
        <ele>685</ele>
        <time>2019-07-09T19:45:25Z</time>
      </trkpt>
      <trkpt lat="45.12802" lon="3.99781">
        <ele>684</ele>
        <time>2019-07-09T19:45:25Z</time>
      </trkpt>
      <trkpt lat="45.12798" lon="3.99803">
        <ele>683</ele>
        <time>2019-07-09T19:45:25Z</time>
      </trkpt>
      <trkpt lat="45.12798" lon="3.99803">
        <ele>683</ele>
        <time>2019-07-09T19:45:25Z</time>
      </trkpt>
      <trkpt lat="45.12797" lon="3.99807">
        <ele>683</ele>
        <time>2019-07-09T19:45:25Z</time>
      </trkpt>
      <trkpt lat="45.12792" lon="3.99821">
        <ele>683</ele>
        <time>2019-07-09T19:45:25Z</time>
      </trkpt>
      <trkpt lat="45.12782" lon="3.99842">
        <ele>683</ele>
        <time>2019-07-09T19:45:25Z</time>
      </trkpt>
      <trkpt lat="45.12764" lon="3.99869">
        <ele>684</ele>
        <time>2019-07-09T19:45:25Z</time>
      </trkpt>
      <trkpt lat="45.1271" lon="3.99919">
        <ele>683</ele>
        <time>2019-07-09T19:45:25Z</time>
      </trkpt>
      <trkpt lat="45.12687" lon="3.99945">
        <ele>684</ele>
        <time>2019-07-09T19:45:25Z</time>
      </trkpt>
      <trkpt lat="45.12605" lon="4.00057">
        <ele>690</ele>
        <time>2019-07-09T19:45:25Z</time>
      </trkpt>
      <trkpt lat="45.12597" lon="4.00078">
        <ele>692</ele>
        <time>2019-07-09T19:45:25Z</time>
      </trkpt>
      <trkpt lat="45.1259" lon="4.00109">
        <ele>694</ele>
        <time>2019-07-09T19:45:25Z</time>
      </trkpt>
      <trkpt lat="45.12582" lon="4.00155">
        <ele>698</ele>
        <time>2019-07-09T19:45:25Z</time>
      </trkpt>
      <trkpt lat="45.12568" lon="4.00214">
        <ele>699</ele>
        <time>2019-07-09T19:45:25Z</time>
      </trkpt>
      <trkpt lat="45.12541" lon="4.00264">
        <ele>699</ele>
        <time>2019-07-09T19:45:25Z</time>
      </trkpt>
      <trkpt lat="45.12523" lon="4.00303">
        <ele>699</ele>
        <time>2019-07-09T19:45:25Z</time>
      </trkpt>
      <trkpt lat="45.12514" lon="4.00333">
        <ele>700</ele>
        <time>2019-07-09T19:45:25Z</time>
      </trkpt>
      <trkpt lat="45.12512" lon="4.00371">
        <ele>702</ele>
        <time>2019-07-09T19:45:25Z</time>
      </trkpt>
      <trkpt lat="45.12516" lon="4.00405">
        <ele>706</ele>
        <time>2019-07-09T19:45:25Z</time>
      </trkpt>
      <trkpt lat="45.12539" lon="4.00496">
        <ele>715</ele>
        <time>2019-07-09T19:45:25Z</time>
      </trkpt>
      <trkpt lat="45.12543" lon="4.00532">
        <ele>715</ele>
        <time>2019-07-09T19:45:25Z</time>
      </trkpt>
      <trkpt lat="45.12544" lon="4.00569">
        <ele>713</ele>
        <time>2019-07-09T19:45:25Z</time>
      </trkpt>
      <trkpt lat="45.12541" lon="4.00608">
        <ele>712</ele>
        <time>2019-07-09T19:45:25Z</time>
      </trkpt>
      <trkpt lat="45.12521" lon="4.00715">
        <ele>709</ele>
        <time>2019-07-09T19:45:25Z</time>
      </trkpt>
      <trkpt lat="45.12521" lon="4.00737">
        <ele>711</ele>
        <time>2019-07-09T19:45:25Z</time>
      </trkpt>
      <trkpt lat="45.12524" lon="4.0077">
        <ele>714</ele>
        <time>2019-07-09T19:45:25Z</time>
      </trkpt>
      <trkpt lat="45.12532" lon="4.00799">
        <ele>719</ele>
        <time>2019-07-09T19:45:25Z</time>
      </trkpt>
      <trkpt lat="45.12542" lon="4.00823">
        <ele>722</ele>
        <time>2019-07-09T19:45:25Z</time>
      </trkpt>
      <trkpt lat="45.1255" lon="4.0085">
        <ele>722</ele>
        <time>2019-07-09T19:45:25Z</time>
      </trkpt>
      <trkpt lat="45.12558" lon="4.00882">
        <ele>722</ele>
        <time>2019-07-09T19:45:25Z</time>
      </trkpt>
      <trkpt lat="45.12559" lon="4.0092">
        <ele>721</ele>
        <time>2019-07-09T19:45:25Z</time>
      </trkpt>
      <trkpt lat="45.12556" lon="4.01023">
        <ele>720</ele>
        <time>2019-07-09T19:45:25Z</time>
      </trkpt>
      <trkpt lat="45.12552" lon="4.0105">
        <ele>719</ele>
        <time>2019-07-09T19:45:25Z</time>
      </trkpt>
      <trkpt lat="45.12542" lon="4.0108">
        <ele>718</ele>
        <time>2019-07-09T19:45:25Z</time>
      </trkpt>
      <trkpt lat="45.12529" lon="4.01106">
        <ele>718</ele>
        <time>2019-07-09T19:45:25Z</time>
      </trkpt>
      <trkpt lat="45.12509" lon="4.0113">
        <ele>718</ele>
        <time>2019-07-09T19:45:25Z</time>
      </trkpt>
      <trkpt lat="45.12436" lon="4.01187">
        <ele>715</ele>
        <time>2019-07-09T19:45:25Z</time>
      </trkpt>
      <trkpt lat="45.12413" lon="4.01212">
        <ele>716</ele>
        <time>2019-07-09T19:45:25Z</time>
      </trkpt>
      <trkpt lat="45.12397" lon="4.01242">
        <ele>718</ele>
        <time>2019-07-09T19:45:25Z</time>
      </trkpt>
      <trkpt lat="45.12387" lon="4.01275">
        <ele>718</ele>
        <time>2019-07-09T19:45:25Z</time>
      </trkpt>
      <trkpt lat="45.12384" lon="4.01307">
        <ele>720</ele>
        <time>2019-07-09T19:45:25Z</time>
      </trkpt>
      <trkpt lat="45.12386" lon="4.01343">
        <ele>722</ele>
        <time>2019-07-09T19:45:25Z</time>
      </trkpt>
      <trkpt lat="45.12395" lon="4.0137">
        <ele>726</ele>
        <time>2019-07-09T19:45:25Z</time>
      </trkpt>
      <trkpt lat="45.12409" lon="4.01409">
        <ele>731</ele>
        <time>2019-07-09T19:45:25Z</time>
      </trkpt>
      <trkpt lat="45.12423" lon="4.01442">
        <ele>733</ele>
        <time>2019-07-09T19:45:25Z</time>
      </trkpt>
      <trkpt lat="45.12436" lon="4.0149">
        <ele>733</ele>
        <time>2019-07-09T19:45:25Z</time>
      </trkpt>
      <trkpt lat="45.12445" lon="4.01522">
        <ele>733</ele>
        <time>2019-07-09T19:45:25Z</time>
      </trkpt>
      <trkpt lat="45.12457" lon="4.01546">
        <ele>733</ele>
        <time>2019-07-09T19:45:25Z</time>
      </trkpt>
      <trkpt lat="45.12474" lon="4.0157">
        <ele>736</ele>
        <time>2019-07-09T19:45:25Z</time>
      </trkpt>
      <trkpt lat="45.12487" lon="4.01582">
        <ele>738</ele>
        <time>2019-07-09T19:45:25Z</time>
      </trkpt>
      <trkpt lat="45.12508" lon="4.01595">
        <ele>742</ele>
        <time>2019-07-09T19:45:25Z</time>
      </trkpt>
      <trkpt lat="45.12526" lon="4.016">
        <ele>743</ele>
        <time>2019-07-09T19:45:25Z</time>
      </trkpt>
      <trkpt lat="45.12551" lon="4.01602">
        <ele>745</ele>
        <time>2019-07-09T19:45:25Z</time>
      </trkpt>
      <trkpt lat="45.12556" lon="4.01601">
        <ele>746</ele>
        <time>2019-07-09T19:45:25Z</time>
      </trkpt>
      <trkpt lat="45.12556" lon="4.01601">
        <ele>746</ele>
        <time>2019-07-09T19:45:25Z</time>
      </trkpt>
      <trkpt lat="45.12556" lon="4.01601">
        <ele>746</ele>
        <time>2019-07-09T19:45:25Z</time>
      </trkpt>
      <trkpt lat="45.12612" lon="4.01598">
        <ele>751</ele>
        <time>2019-07-09T19:45:25Z</time>
      </trkpt>
      <trkpt lat="45.12665" lon="4.01592">
        <ele>757</ele>
        <time>2019-07-09T19:45:25Z</time>
      </trkpt>
      <trkpt lat="45.12694" lon="4.01599">
        <ele>761</ele>
        <time>2019-07-09T19:45:25Z</time>
      </trkpt>
      <trkpt lat="45.12718" lon="4.01613">
        <ele>763</ele>
        <time>2019-07-09T19:45:25Z</time>
      </trkpt>
      <trkpt lat="45.12743" lon="4.01642">
        <ele>764</ele>
        <time>2019-07-09T19:45:25Z</time>
      </trkpt>
      <trkpt lat="45.12754" lon="4.01664">
        <ele>763</ele>
        <time>2019-07-09T19:45:25Z</time>
      </trkpt>
      <trkpt lat="45.12763" lon="4.01692">
        <ele>761</ele>
        <time>2019-07-09T19:45:25Z</time>
      </trkpt>
      <trkpt lat="45.12777" lon="4.01744">
        <ele>759</ele>
        <time>2019-07-09T19:45:25Z</time>
      </trkpt>
      <trkpt lat="45.12788" lon="4.01777">
        <ele>759</ele>
        <time>2019-07-09T19:45:25Z</time>
      </trkpt>
      <trkpt lat="45.12835" lon="4.01857">
        <ele>762</ele>
        <time>2019-07-09T19:45:25Z</time>
      </trkpt>
      <trkpt lat="45.12846" lon="4.01887">
        <ele>762</ele>
        <time>2019-07-09T19:45:25Z</time>
      </trkpt>
      <trkpt lat="45.12852" lon="4.01919">
        <ele>761</ele>
        <time>2019-07-09T19:45:25Z</time>
      </trkpt>
      <trkpt lat="45.12857" lon="4.02007">
        <ele>757</ele>
        <time>2019-07-09T19:45:25Z</time>
      </trkpt>
      <trkpt lat="45.12865" lon="4.02044">
        <ele>758</ele>
        <time>2019-07-09T19:45:25Z</time>
      </trkpt>
      <trkpt lat="45.12877" lon="4.02074">
        <ele>760</ele>
        <time>2019-07-09T19:45:25Z</time>
      </trkpt>
      <trkpt lat="45.12893" lon="4.02097">
        <ele>762</ele>
        <time>2019-07-09T19:45:25Z</time>
      </trkpt>
      <trkpt lat="45.12914" lon="4.0212">
        <ele>765</ele>
        <time>2019-07-09T19:45:25Z</time>
      </trkpt>
      <trkpt lat="45.12938" lon="4.0213">
        <ele>769</ele>
        <time>2019-07-09T19:45:25Z</time>
      </trkpt>
      <trkpt lat="45.13039" lon="4.02142">
        <ele>781</ele>
        <time>2019-07-09T19:45:25Z</time>
      </trkpt>
      <trkpt lat="45.13067" lon="4.02139">
        <ele>784</ele>
        <time>2019-07-09T19:45:25Z</time>
      </trkpt>
      <trkpt lat="45.13112" lon="4.02126">
        <ele>787</ele>
        <time>2019-07-09T19:45:25Z</time>
      </trkpt>
      <trkpt lat="45.13127" lon="4.02124">
        <ele>787</ele>
        <time>2019-07-09T19:45:25Z</time>
      </trkpt>
      <trkpt lat="45.13148" lon="4.02128">
        <ele>786</ele>
        <time>2019-07-09T19:45:25Z</time>
      </trkpt>
      <trkpt lat="45.13195" lon="4.02143">
        <ele>782</ele>
        <time>2019-07-09T19:45:25Z</time>
      </trkpt>
      <trkpt lat="45.13217" lon="4.02144">
        <ele>781</ele>
        <time>2019-07-09T19:45:25Z</time>
      </trkpt>
      <trkpt lat="45.13239" lon="4.0214">
        <ele>780</ele>
        <time>2019-07-09T19:45:25Z</time>
      </trkpt>
      <trkpt lat="45.13265" lon="4.0213">
        <ele>780</ele>
        <time>2019-07-09T19:45:25Z</time>
      </trkpt>
      <trkpt lat="45.13298" lon="4.02113">
        <ele>782</ele>
        <time>2019-07-09T19:45:25Z</time>
      </trkpt>
      <trkpt lat="45.13315" lon="4.02109">
        <ele>782</ele>
        <time>2019-07-09T19:45:25Z</time>
      </trkpt>
      <trkpt lat="45.13338" lon="4.02109">
        <ele>781</ele>
        <time>2019-07-09T19:45:25Z</time>
      </trkpt>
      <trkpt lat="45.13365" lon="4.02113">
        <ele>782</ele>
        <time>2019-07-09T19:45:25Z</time>
      </trkpt>
      <trkpt lat="45.13436" lon="4.02129">
        <ele>785</ele>
        <time>2019-07-09T19:45:25Z</time>
      </trkpt>
      <trkpt lat="45.13451" lon="4.0214">
        <ele>784</ele>
        <time>2019-07-09T19:45:25Z</time>
      </trkpt>
      <trkpt lat="45.13464" lon="4.02156">
        <ele>784</ele>
        <time>2019-07-09T19:45:25Z</time>
      </trkpt>
      <trkpt lat="45.13481" lon="4.02179">
        <ele>784</ele>
        <time>2019-07-09T19:45:25Z</time>
      </trkpt>
      <trkpt lat="45.13494" lon="4.02206">
        <ele>785</ele>
        <time>2019-07-09T19:45:25Z</time>
      </trkpt>
      <trkpt lat="45.13499" lon="4.02239">
        <ele>784</ele>
        <time>2019-07-09T19:45:25Z</time>
      </trkpt>
      <trkpt lat="45.135" lon="4.02264">
        <ele>782</ele>
        <time>2019-07-09T19:45:25Z</time>
      </trkpt>
      <trkpt lat="45.13498" lon="4.02276">
        <ele>780</ele>
        <time>2019-07-09T19:45:25Z</time>
      </trkpt>
      <trkpt lat="45.13495" lon="4.02289">
        <ele>779</ele>
        <time>2019-07-09T19:45:25Z</time>
      </trkpt>
      <trkpt lat="45.13484" lon="4.02324">
        <ele>774</ele>
        <time>2019-07-09T19:45:25Z</time>
      </trkpt>
      <trkpt lat="45.13472" lon="4.02346">
        <ele>773</ele>
        <time>2019-07-09T19:45:25Z</time>
      </trkpt>
      <trkpt lat="45.13459" lon="4.02359">
        <ele>772</ele>
        <time>2019-07-09T19:45:25Z</time>
      </trkpt>
      <trkpt lat="45.13442" lon="4.02369">
        <ele>771</ele>
        <time>2019-07-09T19:45:25Z</time>
      </trkpt>
      <trkpt lat="45.13431" lon="4.02374">
        <ele>771</ele>
        <time>2019-07-09T19:45:25Z</time>
      </trkpt>
      <trkpt lat="45.1342" lon="4.02377">
        <ele>771</ele>
        <time>2019-07-09T19:45:25Z</time>
      </trkpt>
      <trkpt lat="45.13394" lon="4.02373">
        <ele>774</ele>
        <time>2019-07-09T19:45:25Z</time>
      </trkpt>
      <trkpt lat="45.13368" lon="4.02359">
        <ele>773</ele>
        <time>2019-07-09T19:45:25Z</time>
      </trkpt>
      <trkpt lat="45.13314" lon="4.0232">
        <ele>765</ele>
        <time>2019-07-09T19:45:25Z</time>
      </trkpt>
      <trkpt lat="45.13287" lon="4.02314">
        <ele>762</ele>
        <time>2019-07-09T19:45:25Z</time>
      </trkpt>
      <trkpt lat="45.13267" lon="4.02315">
        <ele>761</ele>
        <time>2019-07-09T19:45:25Z</time>
      </trkpt>
      <trkpt lat="45.13238" lon="4.02326">
        <ele>762</ele>
        <time>2019-07-09T19:45:25Z</time>
      </trkpt>
      <trkpt lat="45.13215" lon="4.02347">
        <ele>767</ele>
        <time>2019-07-09T19:45:25Z</time>
      </trkpt>
      <trkpt lat="45.13198" lon="4.02371">
        <ele>774</ele>
        <time>2019-07-09T19:45:25Z</time>
      </trkpt>
      <trkpt lat="45.13184" lon="4.024">
        <ele>782</ele>
        <time>2019-07-09T19:45:25Z</time>
      </trkpt>
      <trkpt lat="45.13176" lon="4.02426">
        <ele>785</ele>
        <time>2019-07-09T19:45:25Z</time>
      </trkpt>
      <trkpt lat="45.13168" lon="4.0246">
        <ele>789</ele>
        <time>2019-07-09T19:45:25Z</time>
      </trkpt>
      <trkpt lat="45.13168" lon="4.02507">
        <ele>791</ele>
        <time>2019-07-09T19:45:25Z</time>
      </trkpt>
      <trkpt lat="45.13174" lon="4.02623">
        <ele>787</ele>
        <time>2019-07-09T19:45:25Z</time>
      </trkpt>
      <trkpt lat="45.13181" lon="4.02695">
        <ele>787</ele>
        <time>2019-07-09T19:45:25Z</time>
      </trkpt>
      <trkpt lat="45.13183" lon="4.02746">
        <ele>788</ele>
        <time>2019-07-09T19:45:25Z</time>
      </trkpt>
      <trkpt lat="45.1319" lon="4.02849">
        <ele>790</ele>
        <time>2019-07-09T19:45:25Z</time>
      </trkpt>
      <trkpt lat="45.13188" lon="4.02879">
        <ele>789</ele>
        <time>2019-07-09T19:45:25Z</time>
      </trkpt>
      <trkpt lat="45.13188" lon="4.02879">
        <ele>789</ele>
        <time>2019-07-09T19:45:25Z</time>
      </trkpt>
      <trkpt lat="45.13188" lon="4.02879">
        <ele>789</ele>
        <time>2019-07-09T19:45:25Z</time>
      </trkpt>
      <trkpt lat="45.13182" lon="4.02937">
        <ele>787</ele>
        <time>2019-07-09T19:45:25Z</time>
      </trkpt>
      <trkpt lat="45.1318" lon="4.02974">
        <ele>787</ele>
        <time>2019-07-09T19:45:25Z</time>
      </trkpt>
      <trkpt lat="45.13183" lon="4.03002">
        <ele>789</ele>
        <time>2019-07-09T19:45:25Z</time>
      </trkpt>
      <trkpt lat="45.13198" lon="4.03037">
        <ele>795</ele>
        <time>2019-07-09T19:45:25Z</time>
      </trkpt>
      <trkpt lat="45.13215" lon="4.03095">
        <ele>800</ele>
        <time>2019-07-09T19:45:25Z</time>
      </trkpt>
      <trkpt lat="45.13223" lon="4.03144">
        <ele>802</ele>
        <time>2019-07-09T19:45:25Z</time>
      </trkpt>
      <trkpt lat="45.13222" lon="4.03163">
        <ele>802</ele>
        <time>2019-07-09T19:45:25Z</time>
      </trkpt>
      <trkpt lat="45.13212" lon="4.03198">
        <ele>798</ele>
        <time>2019-07-09T19:45:25Z</time>
      </trkpt>
      <trkpt lat="45.13202" lon="4.03218">
        <ele>795</ele>
        <time>2019-07-09T19:45:25Z</time>
      </trkpt>
      <trkpt lat="45.13196" lon="4.03231">
        <ele>792</ele>
        <time>2019-07-09T19:45:25Z</time>
      </trkpt>
      <trkpt lat="45.13158" lon="4.03279">
        <ele>791</ele>
        <time>2019-07-09T19:45:25Z</time>
      </trkpt>
      <trkpt lat="45.13098" lon="4.03356">
        <ele>792</ele>
        <time>2019-07-09T19:45:25Z</time>
      </trkpt>
      <trkpt lat="45.13064" lon="4.0341">
        <ele>796</ele>
        <time>2019-07-09T19:45:25Z</time>
      </trkpt>
      <trkpt lat="45.1305" lon="4.0344">
        <ele>799</ele>
        <time>2019-07-09T19:45:25Z</time>
      </trkpt>
      <trkpt lat="45.13045" lon="4.0347">
        <ele>803</ele>
        <time>2019-07-09T19:45:25Z</time>
      </trkpt>
      <trkpt lat="45.13042" lon="4.03521">
        <ele>808</ele>
        <time>2019-07-09T19:45:25Z</time>
      </trkpt>
      <trkpt lat="45.13051" lon="4.03563">
        <ele>813</ele>
        <time>2019-07-09T19:45:25Z</time>
      </trkpt>
      <trkpt lat="45.13077" lon="4.03642">
        <ele>818</ele>
        <time>2019-07-09T19:45:25Z</time>
      </trkpt>
      <trkpt lat="45.13082" lon="4.0368">
        <ele>817</ele>
        <time>2019-07-09T19:45:25Z</time>
      </trkpt>
      <trkpt lat="45.13082" lon="4.03722">
        <ele>816</ele>
        <time>2019-07-09T19:45:25Z</time>
      </trkpt>
      <trkpt lat="45.13077" lon="4.0375">
        <ele>816</ele>
        <time>2019-07-09T19:45:25Z</time>
      </trkpt>
      <trkpt lat="45.13064" lon="4.03781">
        <ele>816</ele>
        <time>2019-07-09T19:45:25Z</time>
      </trkpt>
      <trkpt lat="45.13042" lon="4.03815">
        <ele>817</ele>
        <time>2019-07-09T19:45:25Z</time>
      </trkpt>
      <trkpt lat="45.13026" lon="4.03829">
        <ele>818</ele>
        <time>2019-07-09T19:45:25Z</time>
      </trkpt>
      <trkpt lat="45.13007" lon="4.03841">
        <ele>819</ele>
        <time>2019-07-09T19:45:25Z</time>
      </trkpt>
      <trkpt lat="45.13011" lon="4.03848">
        <ele>819</ele>
        <time>2019-07-09T19:45:25Z</time>
      </trkpt>
      <trkpt lat="45.13011" lon="4.03848">
        <ele>819</ele>
        <time>2019-07-09T19:45:25Z</time>
      </trkpt>
      <trkpt lat="45.13028" lon="4.03885">
        <ele>822</ele>
        <time>2019-07-09T19:45:25Z</time>
      </trkpt>
      <trkpt lat="45.13034" lon="4.03891">
        <ele>823</ele>
        <time>2019-07-09T19:45:25Z</time>
      </trkpt>
      <trkpt lat="45.13044" lon="4.03891">
        <ele>823</ele>
        <time>2019-07-09T19:45:25Z</time>
      </trkpt>
      <trkpt lat="45.13069" lon="4.03878">
        <ele>822</ele>
        <time>2019-07-09T19:45:25Z</time>
      </trkpt>
      <trkpt lat="45.13106" lon="4.03875">
        <ele>824</ele>
        <time>2019-07-09T19:45:25Z</time>
      </trkpt>
      <trkpt lat="45.13164" lon="4.03881">
        <ele>829</ele>
        <time>2019-07-09T19:45:25Z</time>
      </trkpt>
      <trkpt lat="45.13208" lon="4.03876">
        <ele>831</ele>
        <time>2019-07-09T19:45:25Z</time>
      </trkpt>
      <trkpt lat="45.13259" lon="4.0388">
        <ele>835</ele>
        <time>2019-07-09T19:45:25Z</time>
      </trkpt>
      <trkpt lat="45.13276" lon="4.03896">
        <ele>836</ele>
        <time>2019-07-09T19:45:25Z</time>
      </trkpt>
      <trkpt lat="45.13279" lon="4.03899">
        <ele>836</ele>
        <time>2019-07-09T19:45:25Z</time>
      </trkpt>
      <trkpt lat="45.13292" lon="4.03927">
        <ele>838</ele>
        <time>2019-07-09T19:45:25Z</time>
      </trkpt>
      <trkpt lat="45.13329" lon="4.04035">
        <ele>844</ele>
        <time>2019-07-09T19:45:25Z</time>
      </trkpt>
      <trkpt lat="45.1334" lon="4.04057">
        <ele>846</ele>
        <time>2019-07-09T19:45:25Z</time>
      </trkpt>
      <trkpt lat="45.13356" lon="4.04062">
        <ele>847</ele>
        <time>2019-07-09T19:45:25Z</time>
      </trkpt>
      <trkpt lat="45.1349" lon="4.03993">
        <ele>856</ele>
        <time>2019-07-09T19:45:25Z</time>
      </trkpt>
      <trkpt lat="45.13524" lon="4.03978">
        <ele>858</ele>
        <time>2019-07-09T19:45:25Z</time>
      </trkpt>
      <trkpt lat="45.13746" lon="4.03934">
        <ele>872</ele>
        <time>2019-07-09T19:45:25Z</time>
      </trkpt>
      <trkpt lat="45.13871" lon="4.03912">
        <ele>866</ele>
        <time>2019-07-09T19:45:25Z</time>
      </trkpt>
      <trkpt lat="45.13985" lon="4.0389">
        <ele>861</ele>
        <time>2019-07-09T19:45:25Z</time>
      </trkpt>
      <trkpt lat="45.14081" lon="4.03875">
        <ele>854</ele>
        <time>2019-07-09T19:45:25Z</time>
      </trkpt>
      <trkpt lat="45.14151" lon="4.03861">
        <ele>850</ele>
        <time>2019-07-09T19:45:25Z</time>
      </trkpt>
      <trkpt lat="45.14201" lon="4.03855">
        <ele>849</ele>
        <time>2019-07-09T19:45:25Z</time>
      </trkpt>
      <trkpt lat="45.14219" lon="4.03849">
        <ele>849</ele>
        <time>2019-07-09T19:45:25Z</time>
      </trkpt>
      <trkpt lat="45.14251" lon="4.03842">
        <ele>849</ele>
        <time>2019-07-09T19:45:25Z</time>
      </trkpt>
      <trkpt lat="45.14306" lon="4.03807">
        <ele>847</ele>
        <time>2019-07-09T19:45:25Z</time>
      </trkpt>
      <trkpt lat="45.14324" lon="4.03804">
        <ele>846</ele>
        <time>2019-07-09T19:45:25Z</time>
      </trkpt>
      <trkpt lat="45.14371" lon="4.03838">
        <ele>849</ele>
        <time>2019-07-09T19:45:25Z</time>
      </trkpt>
      <trkpt lat="45.1439" lon="4.03847">
        <ele>851</ele>
        <time>2019-07-09T19:45:25Z</time>
      </trkpt>
      <trkpt lat="45.14407" lon="4.03842">
        <ele>851</ele>
        <time>2019-07-09T19:45:25Z</time>
      </trkpt>
      <trkpt lat="45.14421" lon="4.03826">
        <ele>850</ele>
        <time>2019-07-09T19:45:25Z</time>
      </trkpt>
      <trkpt lat="45.14445" lon="4.03782">
        <ele>852</ele>
        <time>2019-07-09T19:45:25Z</time>
      </trkpt>
      <trkpt lat="45.14496" lon="4.03656">
        <ele>856</ele>
        <time>2019-07-09T19:45:25Z</time>
      </trkpt>
      <trkpt lat="45.14517" lon="4.03616">
        <ele>856</ele>
        <time>2019-07-09T19:45:25Z</time>
      </trkpt>
      <trkpt lat="45.14569" lon="4.0354">
        <ele>857</ele>
        <time>2019-07-09T19:45:25Z</time>
      </trkpt>
      <trkpt lat="45.14628" lon="4.03471">
        <ele>857</ele>
        <time>2019-07-09T19:45:25Z</time>
      </trkpt>
      <trkpt lat="45.14664" lon="4.03431">
        <ele>857</ele>
        <time>2019-07-09T19:45:25Z</time>
      </trkpt>
      <trkpt lat="45.14703" lon="4.0338">
        <ele>855</ele>
        <time>2019-07-09T19:45:25Z</time>
      </trkpt>
      <trkpt lat="45.14794" lon="4.03324">
        <ele>858</ele>
        <time>2019-07-09T19:45:25Z</time>
      </trkpt>
      <trkpt lat="45.14826" lon="4.03307">
        <ele>861</ele>
        <time>2019-07-09T19:45:25Z</time>
      </trkpt>
      <trkpt lat="45.14846" lon="4.03314">
        <ele>863</ele>
        <time>2019-07-09T19:45:25Z</time>
      </trkpt>
      <trkpt lat="45.14878" lon="4.03339">
        <ele>865</ele>
        <time>2019-07-09T19:45:25Z</time>
      </trkpt>
      <trkpt lat="45.14942" lon="4.03409">
        <ele>866</ele>
        <time>2019-07-09T19:45:25Z</time>
      </trkpt>
      <trkpt lat="45.1497" lon="4.03466">
        <ele>868</ele>
        <time>2019-07-09T19:45:25Z</time>
      </trkpt>
      <trkpt lat="45.15024" lon="4.03605">
        <ele>868</ele>
        <time>2019-07-09T19:45:25Z</time>
      </trkpt>
      <trkpt lat="45.15044" lon="4.03664">
        <ele>870</ele>
        <time>2019-07-09T19:45:25Z</time>
      </trkpt>
      <trkpt lat="45.15056" lon="4.03709">
        <ele>872</ele>
        <time>2019-07-09T19:45:25Z</time>
      </trkpt>
      <trkpt lat="45.15056" lon="4.03709">
        <ele>872</ele>
        <time>2019-07-09T19:45:25Z</time>
      </trkpt>
      <trkpt lat="45.15056" lon="4.0371">
        <ele>872</ele>
        <time>2019-07-09T19:45:25Z</time>
      </trkpt>
      <trkpt lat="45.15076" lon="4.03761">
        <ele>874</ele>
        <time>2019-07-09T19:45:25Z</time>
      </trkpt>
      <trkpt lat="45.15115" lon="4.03847">
        <ele>872</ele>
        <time>2019-07-09T19:45:25Z</time>
      </trkpt>
      <trkpt lat="45.15136" lon="4.03885">
        <ele>869</ele>
        <time>2019-07-09T19:45:25Z</time>
      </trkpt>
      <trkpt lat="45.15149" lon="4.03905">
        <ele>867</ele>
        <time>2019-07-09T19:45:25Z</time>
      </trkpt>
      <trkpt lat="45.15156" lon="4.03913">
        <ele>867</ele>
        <time>2019-07-09T19:45:25Z</time>
      </trkpt>
      <trkpt lat="45.15156" lon="4.03916">
        <ele>867</ele>
        <time>2019-07-09T19:45:25Z</time>
      </trkpt>
      <trkpt lat="45.15197" lon="4.03908">
        <ele>863</ele>
        <time>2019-07-09T19:45:25Z</time>
      </trkpt>
      <trkpt lat="45.15203" lon="4.03907">
        <ele>863</ele>
        <time>2019-07-09T19:45:25Z</time>
      </trkpt>
      <trkpt lat="45.15221" lon="4.03874">
        <ele>860</ele>
        <time>2019-07-09T19:45:25Z</time>
      </trkpt>
      <trkpt lat="45.15249" lon="4.03841">
        <ele>855</ele>
        <time>2019-07-09T19:45:25Z</time>
      </trkpt>
      <trkpt lat="45.15274" lon="4.038">
        <ele>852</ele>
        <time>2019-07-09T19:45:25Z</time>
      </trkpt>
      <trkpt lat="45.15296" lon="4.03778">
        <ele>850</ele>
        <time>2019-07-09T19:45:25Z</time>
      </trkpt>
      <trkpt lat="45.15304" lon="4.03763">
        <ele>850</ele>
        <time>2019-07-09T19:45:25Z</time>
      </trkpt>
      <trkpt lat="45.15314" lon="4.03677">
        <ele>851</ele>
        <time>2019-07-09T19:45:25Z</time>
      </trkpt>
      <trkpt lat="45.15338" lon="4.03627">
        <ele>848</ele>
        <time>2019-07-09T19:45:25Z</time>
      </trkpt>
      <trkpt lat="45.15343" lon="4.03603">
        <ele>847</ele>
        <time>2019-07-09T19:45:25Z</time>
      </trkpt>
      <trkpt lat="45.15346" lon="4.03592">
        <ele>847</ele>
        <time>2019-07-09T19:45:25Z</time>
      </trkpt>
      <trkpt lat="45.1536" lon="4.03536">
        <ele>846</ele>
        <time>2019-07-09T19:45:25Z</time>
      </trkpt>
      <trkpt lat="45.15368" lon="4.03517">
        <ele>845</ele>
        <time>2019-07-09T19:45:25Z</time>
      </trkpt>
      <trkpt lat="45.15379" lon="4.03505">
        <ele>844</ele>
        <time>2019-07-09T19:45:25Z</time>
      </trkpt>
      <trkpt lat="45.15397" lon="4.03495">
        <ele>842</ele>
        <time>2019-07-09T19:45:25Z</time>
      </trkpt>
      <trkpt lat="45.15423" lon="4.0349">
        <ele>840</ele>
        <time>2019-07-09T19:45:25Z</time>
      </trkpt>
      <trkpt lat="45.15453" lon="4.03479">
        <ele>840</ele>
        <time>2019-07-09T19:45:25Z</time>
      </trkpt>
      <trkpt lat="45.15467" lon="4.03469">
        <ele>840</ele>
        <time>2019-07-09T19:45:25Z</time>
      </trkpt>
      <trkpt lat="45.1548" lon="4.03454">
        <ele>841</ele>
        <time>2019-07-09T19:45:25Z</time>
      </trkpt>
      <trkpt lat="45.15494" lon="4.03433">
        <ele>842</ele>
        <time>2019-07-09T19:45:25Z</time>
      </trkpt>
      <trkpt lat="45.15523" lon="4.03391">
        <ele>849</ele>
        <time>2019-07-09T19:45:25Z</time>
      </trkpt>
      <trkpt lat="45.15534" lon="4.03408">
        <ele>847</ele>
        <time>2019-07-09T19:45:25Z</time>
      </trkpt>
      <trkpt lat="45.15534" lon="4.03408">
        <ele>847</ele>
        <time>2019-07-09T19:45:25Z</time>
      </trkpt>
      <trkpt lat="45.15566" lon="4.03457">
        <ele>846</ele>
        <time>2019-07-09T19:45:25Z</time>
      </trkpt>
      <trkpt lat="45.15638" lon="4.03455">
        <ele>852</ele>
        <time>2019-07-09T19:45:25Z</time>
      </trkpt>
      <trkpt lat="45.15649" lon="4.03449">
        <ele>854</ele>
        <time>2019-07-09T19:45:25Z</time>
      </trkpt>
      <trkpt lat="45.15663" lon="4.03422">
        <ele>859</ele>
        <time>2019-07-09T19:45:25Z</time>
      </trkpt>
      <trkpt lat="45.15679" lon="4.03415">
        <ele>861</ele>
        <time>2019-07-09T19:45:25Z</time>
      </trkpt>
      <trkpt lat="45.15753" lon="4.03434">
        <ele>868</ele>
        <time>2019-07-09T19:45:25Z</time>
      </trkpt>
      <trkpt lat="45.15761" lon="4.03434">
        <ele>870</ele>
        <time>2019-07-09T19:45:25Z</time>
      </trkpt>
      <trkpt lat="45.15773" lon="4.03433">
        <ele>872</ele>
        <time>2019-07-09T19:45:25Z</time>
      </trkpt>
      <trkpt lat="45.15779" lon="4.03428">
        <ele>874</ele>
        <time>2019-07-09T19:45:25Z</time>
      </trkpt>
      <trkpt lat="45.15782" lon="4.03415">
        <ele>876</ele>
        <time>2019-07-09T19:45:25Z</time>
      </trkpt>
      <trkpt lat="45.15779" lon="4.0338">
        <ele>879</ele>
        <time>2019-07-09T19:45:25Z</time>
      </trkpt>
      <trkpt lat="45.15777" lon="4.03355">
        <ele>882</ele>
        <time>2019-07-09T19:45:25Z</time>
      </trkpt>
      <trkpt lat="45.15773" lon="4.03332">
        <ele>884</ele>
        <time>2019-07-09T19:45:25Z</time>
      </trkpt>
      <trkpt lat="45.15756" lon="4.03302">
        <ele>884</ele>
        <time>2019-07-09T19:45:25Z</time>
      </trkpt>
      <trkpt lat="45.15764" lon="4.03285">
        <ele>888</ele>
        <time>2019-07-09T19:45:25Z</time>
      </trkpt>
      <trkpt lat="45.15776" lon="4.03285">
        <ele>890</ele>
        <time>2019-07-09T19:45:25Z</time>
      </trkpt>
      <trkpt lat="45.15783" lon="4.03293">
        <ele>890</ele>
        <time>2019-07-09T19:45:25Z</time>
      </trkpt>
      <trkpt lat="45.15801" lon="4.03285">
        <ele>895</ele>
        <time>2019-07-09T19:45:25Z</time>
      </trkpt>
      <trkpt lat="45.15786" lon="4.03224">
        <ele>899</ele>
        <time>2019-07-09T19:45:25Z</time>
      </trkpt>
      <trkpt lat="45.15786" lon="4.03224">
        <ele>899</ele>
        <time>2019-07-09T19:45:25Z</time>
      </trkpt>
      <trkpt lat="45.15779" lon="4.03195">
        <ele>899</ele>
        <time>2019-07-09T19:45:25Z</time>
      </trkpt>
      <trkpt lat="45.15775" lon="4.03162">
        <ele>899</ele>
        <time>2019-07-09T19:45:25Z</time>
      </trkpt>
      <trkpt lat="45.15778" lon="4.0311">
        <ele>898</ele>
        <time>2019-07-09T19:45:25Z</time>
      </trkpt>
      <trkpt lat="45.15782" lon="4.03098">
        <ele>898</ele>
        <time>2019-07-09T19:45:25Z</time>
      </trkpt>
      <trkpt lat="45.15889" lon="4.02921">
        <ele>896</ele>
        <time>2019-07-09T19:45:25Z</time>
      </trkpt>
      <trkpt lat="45.15895" lon="4.02917">
        <ele>897</ele>
        <time>2019-07-09T19:45:25Z</time>
      </trkpt>
      <trkpt lat="45.15909" lon="4.02917">
        <ele>898</ele>
        <time>2019-07-09T19:45:25Z</time>
      </trkpt>
      <trkpt lat="45.15921" lon="4.02908">
        <ele>898</ele>
        <time>2019-07-09T19:45:25Z</time>
      </trkpt>
      <trkpt lat="45.15953" lon="4.0287">
        <ele>901</ele>
        <time>2019-07-09T19:45:25Z</time>
      </trkpt>
      <trkpt lat="45.1592" lon="4.02845">
        <ele>899</ele>
        <time>2019-07-09T19:45:25Z</time>
      </trkpt>
      <trkpt lat="45.15916" lon="4.02843">
        <ele>899</ele>
        <time>2019-07-09T19:45:25Z</time>
      </trkpt>
      <trkpt lat="45.15916" lon="4.02842">
        <ele>899</ele>
        <time>2019-07-09T19:45:25Z</time>
      </trkpt>
      <trkpt lat="45.1592" lon="4.02845">
        <ele>899</ele>
        <time>2019-07-09T19:45:25Z</time>
      </trkpt>
      <trkpt lat="45.15953" lon="4.0287">
        <ele>901</ele>
        <time>2019-07-09T19:45:25Z</time>
      </trkpt>
      <trkpt lat="45.1599" lon="4.02897">
        <ele>904</ele>
        <time>2019-07-09T19:45:25Z</time>
      </trkpt>
      <trkpt lat="45.16005" lon="4.0291">
        <ele>905</ele>
        <time>2019-07-09T19:45:25Z</time>
      </trkpt>
      <trkpt lat="45.16019" lon="4.02913">
        <ele>907</ele>
        <time>2019-07-09T19:45:25Z</time>
      </trkpt>
      <trkpt lat="45.16033" lon="4.02913">
        <ele>908</ele>
        <time>2019-07-09T19:45:25Z</time>
      </trkpt>
      <trkpt lat="45.16031" lon="4.02901">
        <ele>908</ele>
        <time>2019-07-09T19:45:25Z</time>
      </trkpt>
      <trkpt lat="45.16011" lon="4.0282">
        <ele>908</ele>
        <time>2019-07-09T19:45:25Z</time>
      </trkpt>
      <trkpt lat="45.15982" lon="4.02637">
        <ele>920</ele>
        <time>2019-07-09T19:45:25Z</time>
      </trkpt>
      <trkpt lat="45.15956" lon="4.0259">
        <ele>921</ele>
        <time>2019-07-09T19:45:25Z</time>
      </trkpt>
      <trkpt lat="45.15935" lon="4.02515">
        <ele>925</ele>
        <time>2019-07-09T19:45:25Z</time>
      </trkpt>
      <trkpt lat="45.15935" lon="4.02494">
        <ele>927</ele>
        <time>2019-07-09T19:45:25Z</time>
      </trkpt>
      <trkpt lat="45.15934" lon="4.02337">
        <ele>930</ele>
        <time>2019-07-09T19:45:25Z</time>
      </trkpt>
      <trkpt lat="45.15944" lon="4.02273">
        <ele>929</ele>
        <time>2019-07-09T19:45:25Z</time>
      </trkpt>
      <trkpt lat="45.15983" lon="4.02114">
        <ele>928</ele>
        <time>2019-07-09T19:45:25Z</time>
      </trkpt>
      <trkpt lat="45.15976" lon="4.02079">
        <ele>927</ele>
        <time>2019-07-09T19:45:25Z</time>
      </trkpt>
      <trkpt lat="45.15974" lon="4.02064">
        <ele>927</ele>
        <time>2019-07-09T19:45:25Z</time>
      </trkpt>
      <trkpt lat="45.15974" lon="4.02064">
        <ele>927</ele>
        <time>2019-07-09T19:45:25Z</time>
      </trkpt>
      <trkpt lat="45.15972" lon="4.02053">
        <ele>927</ele>
        <time>2019-07-09T19:45:25Z</time>
      </trkpt>
      <trkpt lat="45.15975" lon="4.02045">
        <ele>928</ele>
        <time>2019-07-09T19:45:25Z</time>
      </trkpt>
      <trkpt lat="45.15983" lon="4.02001">
        <ele>930</ele>
        <time>2019-07-09T19:45:25Z</time>
      </trkpt>
      <trkpt lat="45.15985" lon="4.01997">
        <ele>930</ele>
        <time>2019-07-09T19:45:25Z</time>
      </trkpt>
      <trkpt lat="45.15987" lon="4.01994">
        <ele>931</ele>
        <time>2019-07-09T19:45:25Z</time>
      </trkpt>
      <trkpt lat="45.15991" lon="4.01993">
        <ele>932</ele>
        <time>2019-07-09T19:45:25Z</time>
      </trkpt>
      <trkpt lat="45.15983" lon="4.01971">
        <ele>929</ele>
        <time>2019-07-09T19:45:25Z</time>
      </trkpt>
      <trkpt lat="45.15977" lon="4.01942">
        <ele>926</ele>
        <time>2019-07-09T19:45:25Z</time>
      </trkpt>
      <trkpt lat="45.15979" lon="4.01932">
        <ele>925</ele>
        <time>2019-07-09T19:45:25Z</time>
      </trkpt>
      <trkpt lat="45.15982" lon="4.01913">
        <ele>924</ele>
        <time>2019-07-09T19:45:25Z</time>
      </trkpt>
      <trkpt lat="45.15991" lon="4.01899">
        <ele>925</ele>
        <time>2019-07-09T19:45:25Z</time>
      </trkpt>
      <trkpt lat="45.15998" lon="4.01857">
        <ele>919</ele>
        <time>2019-07-09T19:45:25Z</time>
      </trkpt>
      <trkpt lat="45.16005" lon="4.01854">
        <ele>919</ele>
        <time>2019-07-09T19:45:25Z</time>
      </trkpt>
      <trkpt lat="45.16005" lon="4.01854">
        <ele>919</ele>
        <time>2019-07-09T19:45:25Z</time>
      </trkpt>
      <trkpt lat="45.1601" lon="4.01851">
        <ele>918</ele>
        <time>2019-07-09T19:45:25Z</time>
      </trkpt>
      <trkpt lat="45.16036" lon="4.01851">
        <ele>918</ele>
        <time>2019-07-09T19:45:25Z</time>
      </trkpt>
      <trkpt lat="45.16059" lon="4.0185">
        <ele>918</ele>
        <time>2019-07-09T19:45:25Z</time>
      </trkpt>
      <trkpt lat="45.16064" lon="4.01856">
        <ele>919</ele>
        <time>2019-07-09T19:45:25Z</time>
      </trkpt>
      <trkpt lat="45.16069" lon="4.01874">
        <ele>923</ele>
        <time>2019-07-09T19:45:25Z</time>
      </trkpt>
      <trkpt lat="45.16069" lon="4.01878">
        <ele>924</ele>
        <time>2019-07-09T19:45:25Z</time>
      </trkpt>
      <trkpt lat="45.1606" lon="4.01882">
        <ele>924</ele>
        <time>2019-07-09T19:45:25Z</time>
      </trkpt>
      <trkpt lat="45.16036" lon="4.01883">
        <ele>924</ele>
        <time>2019-07-09T19:45:25Z</time>
      </trkpt>
      <trkpt lat="45.16031" lon="4.0189">
        <ele>925</ele>
        <time>2019-07-09T19:45:25Z</time>
      </trkpt>
      <trkpt lat="45.16031" lon="4.0189">
        <ele>925</ele>
        <time>2019-07-09T19:45:25Z</time>
      </trkpt>
      <trkpt lat="45.16036" lon="4.01883">
        <ele>924</ele>
        <time>2019-07-09T19:45:25Z</time>
      </trkpt>
      <trkpt lat="45.1606" lon="4.01882">
        <ele>924</ele>
        <time>2019-07-09T19:45:25Z</time>
      </trkpt>
      <trkpt lat="45.16069" lon="4.01878">
        <ele>924</ele>
        <time>2019-07-09T19:45:25Z</time>
      </trkpt>
      <trkpt lat="45.16069" lon="4.01874">
        <ele>923</ele>
        <time>2019-07-09T19:45:25Z</time>
      </trkpt>
      <trkpt lat="45.16064" lon="4.01856">
        <ele>919</ele>
        <time>2019-07-09T19:45:25Z</time>
      </trkpt>
      <trkpt lat="45.16059" lon="4.0185">
        <ele>918</ele>
        <time>2019-07-09T19:45:25Z</time>
      </trkpt>
      <trkpt lat="45.16036" lon="4.01851">
        <ele>918</ele>
        <time>2019-07-09T19:45:25Z</time>
      </trkpt>
      <trkpt lat="45.16031" lon="4.01851">
        <ele>918</ele>
        <time>2019-07-09T19:45:25Z</time>
      </trkpt>
      <trkpt lat="45.16031" lon="4.01851">
        <ele>918</ele>
        <time>2019-07-09T19:45:25Z</time>
      </trkpt>
      <trkpt lat="45.1601" lon="4.01851">
        <ele>918</ele>
        <time>2019-07-09T19:45:25Z</time>
      </trkpt>
      <trkpt lat="45.15998" lon="4.01857">
        <ele>919</ele>
        <time>2019-07-09T19:45:25Z</time>
      </trkpt>
      <trkpt lat="45.15991" lon="4.01899">
        <ele>925</ele>
        <time>2019-07-09T19:45:25Z</time>
      </trkpt>
      <trkpt lat="45.15982" lon="4.01913">
        <ele>924</ele>
        <time>2019-07-09T19:45:25Z</time>
      </trkpt>
      <trkpt lat="45.15979" lon="4.01932">
        <ele>925</ele>
        <time>2019-07-09T19:45:25Z</time>
      </trkpt>
      <trkpt lat="45.15977" lon="4.01942">
        <ele>926</ele>
        <time>2019-07-09T19:45:25Z</time>
      </trkpt>
      <trkpt lat="45.15983" lon="4.01971">
        <ele>929</ele>
        <time>2019-07-09T19:45:25Z</time>
      </trkpt>
      <trkpt lat="45.15991" lon="4.01993">
        <ele>932</ele>
        <time>2019-07-09T19:45:25Z</time>
      </trkpt>
      <trkpt lat="45.15987" lon="4.01994">
        <ele>931</ele>
        <time>2019-07-09T19:45:25Z</time>
      </trkpt>
      <trkpt lat="45.15985" lon="4.01997">
        <ele>930</ele>
        <time>2019-07-09T19:45:25Z</time>
      </trkpt>
      <trkpt lat="45.15983" lon="4.02001">
        <ele>930</ele>
        <time>2019-07-09T19:45:25Z</time>
      </trkpt>
      <trkpt lat="45.15975" lon="4.02045">
        <ele>928</ele>
        <time>2019-07-09T19:45:25Z</time>
      </trkpt>
      <trkpt lat="45.15972" lon="4.02053">
        <ele>927</ele>
        <time>2019-07-09T19:45:25Z</time>
      </trkpt>
      <trkpt lat="45.15969" lon="4.02055">
        <ele>926</ele>
        <time>2019-07-09T19:45:25Z</time>
      </trkpt>
      <trkpt lat="45.15953" lon="4.02062">
        <ele>924</ele>
        <time>2019-07-09T19:45:25Z</time>
      </trkpt>
      <trkpt lat="45.15927" lon="4.02069">
        <ele>920</ele>
        <time>2019-07-09T19:45:25Z</time>
      </trkpt>
      <trkpt lat="45.15915" lon="4.02075">
        <ele>919</ele>
        <time>2019-07-09T19:45:25Z</time>
      </trkpt>
      <trkpt lat="45.15902" lon="4.0209">
        <ele>918</ele>
        <time>2019-07-09T19:45:25Z</time>
      </trkpt>
      <trkpt lat="45.15896" lon="4.02102">
        <ele>917</ele>
        <time>2019-07-09T19:45:25Z</time>
      </trkpt>
      <trkpt lat="45.15885" lon="4.02117">
        <ele>916</ele>
        <time>2019-07-09T19:45:25Z</time>
      </trkpt>
      <trkpt lat="45.15867" lon="4.02129">
        <ele>915</ele>
        <time>2019-07-09T19:45:25Z</time>
      </trkpt>
      <trkpt lat="45.15847" lon="4.0213">
        <ele>913</ele>
        <time>2019-07-09T19:45:25Z</time>
      </trkpt>
      <trkpt lat="45.15825" lon="4.02125">
        <ele>912</ele>
        <time>2019-07-09T19:45:25Z</time>
      </trkpt>
      <trkpt lat="45.15791" lon="4.02119">
        <ele>910</ele>
        <time>2019-07-09T19:45:25Z</time>
      </trkpt>
      <trkpt lat="45.15742" lon="4.02108">
        <ele>908</ele>
        <time>2019-07-09T19:45:25Z</time>
      </trkpt>
      <trkpt lat="45.15717" lon="4.021">
        <ele>909</ele>
        <time>2019-07-09T19:45:25Z</time>
      </trkpt>
      <trkpt lat="45.15716" lon="4.02092">
        <ele>909</ele>
        <time>2019-07-09T19:45:25Z</time>
      </trkpt>
      <trkpt lat="45.15716" lon="4.02092">
        <ele>909</ele>
        <time>2019-07-09T19:45:25Z</time>
      </trkpt>
      <trkpt lat="45.15714" lon="4.02076">
        <ele>910</ele>
        <time>2019-07-09T19:45:25Z</time>
      </trkpt>
      <trkpt lat="45.15714" lon="4.02055">
        <ele>910</ele>
        <time>2019-07-09T19:45:25Z</time>
      </trkpt>
      <trkpt lat="45.1571" lon="4.02035">
        <ele>909</ele>
        <time>2019-07-09T19:45:25Z</time>
      </trkpt>
      <trkpt lat="45.15704" lon="4.02018">
        <ele>909</ele>
        <time>2019-07-09T19:45:25Z</time>
      </trkpt>
      <trkpt lat="45.15657" lon="4.01906">
        <ele>909</ele>
        <time>2019-07-09T19:45:25Z</time>
      </trkpt>
      <trkpt lat="45.1564" lon="4.01868">
        <ele>909</ele>
        <time>2019-07-09T19:45:25Z</time>
      </trkpt>
      <trkpt lat="45.15554" lon="4.01701">
        <ele>906</ele>
        <time>2019-07-09T19:45:25Z</time>
      </trkpt>
      <trkpt lat="45.1548" lon="4.01584">
        <ele>905</ele>
        <time>2019-07-09T19:45:25Z</time>
      </trkpt>
      <trkpt lat="45.15428" lon="4.01505">
        <ele>905</ele>
        <time>2019-07-09T19:45:25Z</time>
      </trkpt>
      <trkpt lat="45.15401" lon="4.01463">
        <ele>905</ele>
        <time>2019-07-09T19:45:25Z</time>
      </trkpt>
      <trkpt lat="45.15392" lon="4.0145">
        <ele>905</ele>
        <time>2019-07-09T19:45:25Z</time>
      </trkpt>
      <trkpt lat="45.15387" lon="4.01447">
        <ele>905</ele>
        <time>2019-07-09T19:45:25Z</time>
      </trkpt>
      <trkpt lat="45.15383" lon="4.01445">
        <ele>905</ele>
        <time>2019-07-09T19:45:25Z</time>
      </trkpt>
      <trkpt lat="45.15381" lon="4.01439">
        <ele>905</ele>
        <time>2019-07-09T19:45:25Z</time>
      </trkpt>
      <trkpt lat="45.15377" lon="4.01434">
        <ele>905</ele>
        <time>2019-07-09T19:45:25Z</time>
      </trkpt>
      <trkpt lat="45.15374" lon="4.01431">
        <ele>905</ele>
        <time>2019-07-09T19:45:25Z</time>
      </trkpt>
      <trkpt lat="45.15376" lon="4.01426">
        <ele>905</ele>
        <time>2019-07-09T19:45:25Z</time>
      </trkpt>
      <trkpt lat="45.15376" lon="4.01426">
        <ele>905</ele>
        <time>2019-07-09T19:45:25Z</time>
      </trkpt>
      <trkpt lat="45.15379" lon="4.01414">
        <ele>906</ele>
        <time>2019-07-09T19:45:25Z</time>
      </trkpt>
      <trkpt lat="45.15387" lon="4.01395">
        <ele>906</ele>
        <time>2019-07-09T19:45:25Z</time>
      </trkpt>
      <trkpt lat="45.15408" lon="4.0133">
        <ele>909</ele>
        <time>2019-07-09T19:45:25Z</time>
      </trkpt>
      <trkpt lat="45.15426" lon="4.01294">
        <ele>912</ele>
        <time>2019-07-09T19:45:25Z</time>
      </trkpt>
      <trkpt lat="45.15469" lon="4.01219">
        <ele>915</ele>
        <time>2019-07-09T19:45:25Z</time>
      </trkpt>
      <trkpt lat="45.15503" lon="4.01184">
        <ele>916</ele>
        <time>2019-07-09T19:45:25Z</time>
      </trkpt>
      <trkpt lat="45.15512" lon="4.01171">
        <ele>916</ele>
        <time>2019-07-09T19:45:25Z</time>
      </trkpt>
      <trkpt lat="45.15545" lon="4.01074">
        <ele>922</ele>
        <time>2019-07-09T19:45:25Z</time>
      </trkpt>
      <trkpt lat="45.15564" lon="4.01032">
        <ele>923</ele>
        <time>2019-07-09T19:45:25Z</time>
      </trkpt>
      <trkpt lat="45.15567" lon="4.01023">
        <ele>923</ele>
        <time>2019-07-09T19:45:25Z</time>
      </trkpt>
      <trkpt lat="45.15567" lon="4.01015">
        <ele>923</ele>
        <time>2019-07-09T19:45:25Z</time>
      </trkpt>
      <trkpt lat="45.15566" lon="4.01011">
        <ele>923</ele>
        <time>2019-07-09T19:45:25Z</time>
      </trkpt>
      <trkpt lat="45.15562" lon="4.01008">
        <ele>924</ele>
        <time>2019-07-09T19:45:25Z</time>
      </trkpt>
      <trkpt lat="45.15562" lon="4.01008">
        <ele>924</ele>
        <time>2019-07-09T19:45:25Z</time>
      </trkpt>
      <trkpt lat="45.15562" lon="4.01008">
        <ele>924</ele>
        <time>2019-07-09T19:45:25Z</time>
      </trkpt>
      <trkpt lat="45.15553" lon="4.01006">
        <ele>925</ele>
        <time>2019-07-09T19:45:25Z</time>
      </trkpt>
      <trkpt lat="45.15547" lon="4.01008">
        <ele>926</ele>
        <time>2019-07-09T19:45:25Z</time>
      </trkpt>
      <trkpt lat="45.15523" lon="4.01026">
        <ele>927</ele>
        <time>2019-07-09T19:45:25Z</time>
      </trkpt>
      <trkpt lat="45.15503" lon="4.01035">
        <ele>929</ele>
        <time>2019-07-09T19:45:25Z</time>
      </trkpt>
      <trkpt lat="45.1548" lon="4.01038">
        <ele>930</ele>
        <time>2019-07-09T19:45:25Z</time>
      </trkpt>
      <trkpt lat="45.15457" lon="4.01034">
        <ele>933</ele>
        <time>2019-07-09T19:45:25Z</time>
      </trkpt>
      <trkpt lat="45.15384" lon="4.01007">
        <ele>940</ele>
        <time>2019-07-09T19:45:25Z</time>
      </trkpt>
      <trkpt lat="45.1533" lon="4.00997">
        <ele>943</ele>
        <time>2019-07-09T19:45:25Z</time>
      </trkpt>
      <trkpt lat="45.15264" lon="4.0098">
        <ele>943</ele>
        <time>2019-07-09T19:45:25Z</time>
      </trkpt>
      <trkpt lat="45.15246" lon="4.0097">
        <ele>945</ele>
        <time>2019-07-09T19:45:25Z</time>
      </trkpt>
      <trkpt lat="45.1524" lon="4.00965">
        <ele>946</ele>
        <time>2019-07-09T19:45:25Z</time>
      </trkpt>
      <trkpt lat="45.15199" lon="4.00923">
        <ele>954</ele>
        <time>2019-07-09T19:45:25Z</time>
      </trkpt>
      <trkpt lat="45.15194" lon="4.0092">
        <ele>954</ele>
        <time>2019-07-09T19:45:25Z</time>
      </trkpt>
      <trkpt lat="45.15179" lon="4.00917">
        <ele>954</ele>
        <time>2019-07-09T19:45:25Z</time>
      </trkpt>
      <trkpt lat="45.15161" lon="4.0092">
        <ele>954</ele>
        <time>2019-07-09T19:45:25Z</time>
      </trkpt>
      <trkpt lat="45.15143" lon="4.00926">
        <ele>954</ele>
        <time>2019-07-09T19:45:25Z</time>
      </trkpt>
      <trkpt lat="45.15133" lon="4.00936">
        <ele>953</ele>
        <time>2019-07-09T19:45:25Z</time>
      </trkpt>
      <trkpt lat="45.15113" lon="4.00962">
        <ele>950</ele>
        <time>2019-07-09T19:45:25Z</time>
      </trkpt>
      <trkpt lat="45.15101" lon="4.00966">
        <ele>951</ele>
        <time>2019-07-09T19:45:25Z</time>
      </trkpt>
      <trkpt lat="45.15084" lon="4.00966">
        <ele>952</ele>
        <time>2019-07-09T19:45:25Z</time>
      </trkpt>
      <trkpt lat="45.15061" lon="4.00962">
        <ele>952</ele>
        <time>2019-07-09T19:45:25Z</time>
      </trkpt>
      <trkpt lat="45.15027" lon="4.00952">
        <ele>952</ele>
        <time>2019-07-09T19:45:25Z</time>
      </trkpt>
      <trkpt lat="45.15017" lon="4.00947">
        <ele>952</ele>
        <time>2019-07-09T19:45:25Z</time>
      </trkpt>
      <trkpt lat="45.15008" lon="4.00943">
        <ele>952</ele>
        <time>2019-07-09T19:45:25Z</time>
      </trkpt>
      <trkpt lat="45.14981" lon="4.00924">
        <ele>951</ele>
        <time>2019-07-09T19:45:25Z</time>
      </trkpt>
      <trkpt lat="45.14968" lon="4.0091">
        <ele>950</ele>
        <time>2019-07-09T19:45:25Z</time>
      </trkpt>
      <trkpt lat="45.14959" lon="4.00894">
        <ele>950</ele>
        <time>2019-07-09T19:45:25Z</time>
      </trkpt>
      <trkpt lat="45.14956" lon="4.00884">
        <ele>950</ele>
        <time>2019-07-09T19:45:25Z</time>
      </trkpt>
      <trkpt lat="45.14946" lon="4.00816">
        <ele>952</ele>
        <time>2019-07-09T19:45:25Z</time>
      </trkpt>
      <trkpt lat="45.1494" lon="4.0079">
        <ele>952</ele>
        <time>2019-07-09T19:45:25Z</time>
      </trkpt>
      <trkpt lat="45.14933" lon="4.00761">
        <ele>952</ele>
        <time>2019-07-09T19:45:25Z</time>
      </trkpt>
      <trkpt lat="45.14901" lon="4.00658">
        <ele>944</ele>
        <time>2019-07-09T19:45:25Z</time>
      </trkpt>
      <trkpt lat="45.14901" lon="4.00657">
        <ele>944</ele>
        <time>2019-07-09T19:45:25Z</time>
      </trkpt>
      <trkpt lat="45.14901" lon="4.00657">
        <ele>944</ele>
        <time>2019-07-09T19:45:25Z</time>
      </trkpt>
      <trkpt lat="45.14897" lon="4.00647">
        <ele>943</ele>
        <time>2019-07-09T19:45:25Z</time>
      </trkpt>
      <trkpt lat="45.14887" lon="4.00629">
        <ele>938</ele>
        <time>2019-07-09T19:45:25Z</time>
      </trkpt>
      <trkpt lat="45.14881" lon="4.00621">
        <ele>936</ele>
        <time>2019-07-09T19:45:25Z</time>
      </trkpt>
      <trkpt lat="45.14856" lon="4.00603">
        <ele>930</ele>
        <time>2019-07-09T19:45:25Z</time>
      </trkpt>
      <trkpt lat="45.14853" lon="4.00598">
        <ele>929</ele>
        <time>2019-07-09T19:45:25Z</time>
      </trkpt>
      <trkpt lat="45.1485" lon="4.00588">
        <ele>927</ele>
        <time>2019-07-09T19:45:25Z</time>
      </trkpt>
      <trkpt lat="45.14851" lon="4.00578">
        <ele>926</ele>
        <time>2019-07-09T19:45:25Z</time>
      </trkpt>
      <trkpt lat="45.14854" lon="4.00574">
        <ele>926</ele>
        <time>2019-07-09T19:45:25Z</time>
      </trkpt>
      <trkpt lat="45.14858" lon="4.00571">
        <ele>926</ele>
        <time>2019-07-09T19:45:25Z</time>
      </trkpt>
      <trkpt lat="45.14876" lon="4.00567">
        <ele>928</ele>
        <time>2019-07-09T19:45:25Z</time>
      </trkpt>
      <trkpt lat="45.1489" lon="4.0056">
        <ele>929</ele>
        <time>2019-07-09T19:45:25Z</time>
      </trkpt>
      <trkpt lat="45.14902" lon="4.00547">
        <ele>929</ele>
        <time>2019-07-09T19:45:25Z</time>
      </trkpt>
      <trkpt lat="45.14907" lon="4.00536">
        <ele>928</ele>
        <time>2019-07-09T19:45:25Z</time>
      </trkpt>
      <trkpt lat="45.14911" lon="4.0052">
        <ele>927</ele>
        <time>2019-07-09T19:45:25Z</time>
      </trkpt>
      <trkpt lat="45.14915" lon="4.00502">
        <ele>926</ele>
        <time>2019-07-09T19:45:25Z</time>
      </trkpt>
      <trkpt lat="45.14921" lon="4.00451">
        <ele>924</ele>
        <time>2019-07-09T19:45:25Z</time>
      </trkpt>
      <trkpt lat="45.14924" lon="4.00441">
        <ele>925</ele>
        <time>2019-07-09T19:45:25Z</time>
      </trkpt>
      <trkpt lat="45.14958" lon="4.00353">
        <ele>926</ele>
        <time>2019-07-09T19:45:25Z</time>
      </trkpt>
      <trkpt lat="45.14964" lon="4.00333">
        <ele>926</ele>
        <time>2019-07-09T19:45:25Z</time>
      </trkpt>
      <trkpt lat="45.14965" lon="4.00323">
        <ele>925</ele>
        <time>2019-07-09T19:45:25Z</time>
      </trkpt>
      <trkpt lat="45.14963" lon="4.00311">
        <ele>925</ele>
        <time>2019-07-09T19:45:25Z</time>
      </trkpt>
      <trkpt lat="45.14964" lon="4.00303">
        <ele>924</ele>
        <time>2019-07-09T19:45:25Z</time>
      </trkpt>
      <trkpt lat="45.14967" lon="4.00293">
        <ele>924</ele>
        <time>2019-07-09T19:45:25Z</time>
      </trkpt>
      <trkpt lat="45.14972" lon="4.0029">
        <ele>925</ele>
        <time>2019-07-09T19:45:25Z</time>
      </trkpt>
      <trkpt lat="45.14985" lon="4.00272">
        <ele>926</ele>
        <time>2019-07-09T19:45:25Z</time>
      </trkpt>
      <trkpt lat="45.1499" lon="4.00258">
        <ele>926</ele>
        <time>2019-07-09T19:45:25Z</time>
      </trkpt>
      <trkpt lat="45.14992" lon="4.00249">
        <ele>925</ele>
        <time>2019-07-09T19:45:25Z</time>
      </trkpt>
      <trkpt lat="45.14989" lon="4.00233">
        <ele>924</ele>
        <time>2019-07-09T19:45:25Z</time>
      </trkpt>
      <trkpt lat="45.14985" lon="4.00216">
        <ele>923</ele>
        <time>2019-07-09T19:45:25Z</time>
      </trkpt>
      <trkpt lat="45.14974" lon="4.00189">
        <ele>919</ele>
        <time>2019-07-09T19:45:25Z</time>
      </trkpt>
      <trkpt lat="45.14968" lon="4.00159">
        <ele>917</ele>
        <time>2019-07-09T19:45:25Z</time>
      </trkpt>
      <trkpt lat="45.14962" lon="4.00104">
        <ele>913</ele>
        <time>2019-07-09T19:45:25Z</time>
      </trkpt>
      <trkpt lat="45.14964" lon="4.00053">
        <ele>910</ele>
        <time>2019-07-09T19:45:25Z</time>
      </trkpt>
      <trkpt lat="45.14975" lon="4">
        <ele>907</ele>
        <time>2019-07-09T19:45:25Z</time>
      </trkpt>
      <trkpt lat="45.14992" lon="3.99956">
        <ele>905</ele>
        <time>2019-07-09T19:45:25Z</time>
      </trkpt>
      <trkpt lat="45.15008" lon="3.99925">
        <ele>902</ele>
        <time>2019-07-09T19:45:25Z</time>
      </trkpt>
      <trkpt lat="45.15025" lon="3.99856">
        <ele>897</ele>
        <time>2019-07-09T19:45:25Z</time>
      </trkpt>
      <trkpt lat="45.15047" lon="3.99811">
        <ele>895</ele>
        <time>2019-07-09T19:45:25Z</time>
      </trkpt>
      <trkpt lat="45.15031" lon="3.99789">
        <ele>892</ele>
        <time>2019-07-09T19:45:25Z</time>
      </trkpt>
      <trkpt lat="45.14954" lon="3.99728">
        <ele>882</ele>
        <time>2019-07-09T19:45:25Z</time>
      </trkpt>
      <trkpt lat="45.14931" lon="3.99713">
        <ele>879</ele>
        <time>2019-07-09T19:45:25Z</time>
      </trkpt>
      <trkpt lat="45.14884" lon="3.99706">
        <ele>874</ele>
        <time>2019-07-09T19:45:25Z</time>
      </trkpt>
      <trkpt lat="45.1487" lon="3.997">
        <ele>872</ele>
        <time>2019-07-09T19:45:25Z</time>
      </trkpt>
      <trkpt lat="45.14851" lon="3.99678">
        <ele>868</ele>
        <time>2019-07-09T19:45:25Z</time>
      </trkpt>
      <trkpt lat="45.14851" lon="3.99678">
        <ele>868</ele>
        <time>2019-07-09T19:45:25Z</time>
      </trkpt>
      <trkpt lat="45.14847" lon="3.99673">
        <ele>867</ele>
        <time>2019-07-09T19:45:25Z</time>
      </trkpt>
      <trkpt lat="45.14815" lon="3.99644">
        <ele>860</ele>
        <time>2019-07-09T19:45:25Z</time>
      </trkpt>
      <trkpt lat="45.1481" lon="3.99628">
        <ele>857</ele>
        <time>2019-07-09T19:45:25Z</time>
      </trkpt>
      <trkpt lat="45.14801" lon="3.99613">
        <ele>855</ele>
        <time>2019-07-09T19:45:25Z</time>
      </trkpt>
      <trkpt lat="45.14782" lon="3.99609">
        <ele>851</ele>
        <time>2019-07-09T19:45:25Z</time>
      </trkpt>
      <trkpt lat="45.14763" lon="3.99612">
        <ele>848</ele>
        <time>2019-07-09T19:45:25Z</time>
      </trkpt>
      <trkpt lat="45.14756" lon="3.9961">
        <ele>847</ele>
        <time>2019-07-09T19:45:25Z</time>
      </trkpt>
      <trkpt lat="45.1475" lon="3.99603">
        <ele>845</ele>
        <time>2019-07-09T19:45:25Z</time>
      </trkpt>
      <trkpt lat="45.14748" lon="3.99579">
        <ele>843</ele>
        <time>2019-07-09T19:45:25Z</time>
      </trkpt>
      <trkpt lat="45.14752" lon="3.99548">
        <ele>842</ele>
        <time>2019-07-09T19:45:25Z</time>
      </trkpt>
      <trkpt lat="45.14745" lon="3.99523">
        <ele>839</ele>
        <time>2019-07-09T19:45:25Z</time>
      </trkpt>
      <trkpt lat="45.14749" lon="3.995">
        <ele>838</ele>
        <time>2019-07-09T19:45:25Z</time>
      </trkpt>
      <trkpt lat="45.14751" lon="3.9947">
        <ele>836</ele>
        <time>2019-07-09T19:45:25Z</time>
      </trkpt>
      <trkpt lat="45.14707" lon="3.99428">
        <ele>828</ele>
        <time>2019-07-09T19:45:25Z</time>
      </trkpt>
      <trkpt lat="45.14674" lon="3.99377">
        <ele>820</ele>
        <time>2019-07-09T19:45:25Z</time>
      </trkpt>
      <trkpt lat="45.14651" lon="3.99355">
        <ele>817</ele>
        <time>2019-07-09T19:45:25Z</time>
      </trkpt>
      <trkpt lat="45.14622" lon="3.99337">
        <ele>813</ele>
        <time>2019-07-09T19:45:25Z</time>
      </trkpt>
      <trkpt lat="45.14615" lon="3.99328">
        <ele>812</ele>
        <time>2019-07-09T19:45:25Z</time>
      </trkpt>
      <trkpt lat="45.146" lon="3.99307">
        <ele>809</ele>
        <time>2019-07-09T19:45:25Z</time>
      </trkpt>
      <trkpt lat="45.14589" lon="3.99286">
        <ele>807</ele>
        <time>2019-07-09T19:45:25Z</time>
      </trkpt>
      <trkpt lat="45.14583" lon="3.99264">
        <ele>805</ele>
        <time>2019-07-09T19:45:25Z</time>
      </trkpt>
      <trkpt lat="45.14585" lon="3.99214">
        <ele>801</ele>
        <time>2019-07-09T19:45:25Z</time>
      </trkpt>
      <trkpt lat="45.14566" lon="3.99095">
        <ele>789</ele>
        <time>2019-07-09T19:45:25Z</time>
      </trkpt>
      <trkpt lat="45.14594" lon="3.99054">
        <ele>785</ele>
        <time>2019-07-09T19:45:25Z</time>
      </trkpt>
      <trkpt lat="45.1462" lon="3.99001">
        <ele>780</ele>
        <time>2019-07-09T19:45:25Z</time>
      </trkpt>
      <trkpt lat="45.14638" lon="3.98976">
        <ele>778</ele>
        <time>2019-07-09T19:45:25Z</time>
      </trkpt>
      <trkpt lat="45.14601" lon="3.98947">
        <ele>775</ele>
        <time>2019-07-09T19:45:25Z</time>
      </trkpt>
      <trkpt lat="45.1459" lon="3.9893">
        <ele>773</ele>
        <time>2019-07-09T19:45:25Z</time>
      </trkpt>
      <trkpt lat="45.14582" lon="3.9891">
        <ele>771</ele>
        <time>2019-07-09T19:45:25Z</time>
      </trkpt>
      <trkpt lat="45.14556" lon="3.98852">
        <ele>765</ele>
        <time>2019-07-09T19:45:25Z</time>
      </trkpt>
      <trkpt lat="45.1452" lon="3.98838">
        <ele>764</ele>
        <time>2019-07-09T19:45:25Z</time>
      </trkpt>
      <trkpt lat="45.14495" lon="3.98824">
        <ele>763</ele>
        <time>2019-07-09T19:45:25Z</time>
      </trkpt>
      <trkpt lat="45.14477" lon="3.98792">
        <ele>762</ele>
        <time>2019-07-09T19:45:25Z</time>
      </trkpt>
      <trkpt lat="45.14473" lon="3.98734">
        <ele>762</ele>
        <time>2019-07-09T19:45:25Z</time>
      </trkpt>
      <trkpt lat="45.14473" lon="3.98708">
        <ele>763</ele>
        <time>2019-07-09T19:45:25Z</time>
      </trkpt>
      <trkpt lat="45.14473" lon="3.98708">
        <ele>763</ele>
        <time>2019-07-09T19:45:25Z</time>
      </trkpt>
      <trkpt lat="45.14473" lon="3.98702">
        <ele>763</ele>
        <time>2019-07-09T19:45:25Z</time>
      </trkpt>
      <trkpt lat="45.14461" lon="3.98703">
        <ele>764</ele>
        <time>2019-07-09T19:45:25Z</time>
      </trkpt>
      <trkpt lat="45.14352" lon="3.98721">
        <ele>765</ele>
        <time>2019-07-09T19:45:25Z</time>
      </trkpt>
      <trkpt lat="45.14335" lon="3.98728">
        <ele>765</ele>
        <time>2019-07-09T19:45:25Z</time>
      </trkpt>
      <trkpt lat="45.1433" lon="3.98735">
        <ele>764</ele>
        <time>2019-07-09T19:45:25Z</time>
      </trkpt>
      <trkpt lat="45.14326" lon="3.98743">
        <ele>764</ele>
        <time>2019-07-09T19:45:25Z</time>
      </trkpt>
      <trkpt lat="45.14322" lon="3.98744">
        <ele>764</ele>
        <time>2019-07-09T19:45:25Z</time>
      </trkpt>
      <trkpt lat="45.14307" lon="3.98753">
        <ele>764</ele>
        <time>2019-07-09T19:45:25Z</time>
      </trkpt>
      <trkpt lat="45.14284" lon="3.98758">
        <ele>765</ele>
        <time>2019-07-09T19:45:25Z</time>
      </trkpt>
      <trkpt lat="45.14251" lon="3.98761">
        <ele>767</ele>
        <time>2019-07-09T19:45:25Z</time>
      </trkpt>
      <trkpt lat="45.14228" lon="3.98757">
        <ele>769</ele>
        <time>2019-07-09T19:45:25Z</time>
      </trkpt>
      <trkpt lat="45.14184" lon="3.98768">
        <ele>770</ele>
        <time>2019-07-09T19:45:25Z</time>
      </trkpt>
      <trkpt lat="45.14176" lon="3.9877">
        <ele>770</ele>
        <time>2019-07-09T19:45:25Z</time>
      </trkpt>
      <trkpt lat="45.14176" lon="3.98769">
        <ele>770</ele>
        <time>2019-07-09T19:45:25Z</time>
      </trkpt>
      <trkpt lat="45.1416" lon="3.98772">
        <ele>770</ele>
        <time>2019-07-09T19:45:25Z</time>
      </trkpt>
      <trkpt lat="45.14153" lon="3.98775">
        <ele>770</ele>
        <time>2019-07-09T19:45:25Z</time>
      </trkpt>
      <trkpt lat="45.14115" lon="3.98801">
        <ele>768</ele>
        <time>2019-07-09T19:45:25Z</time>
      </trkpt>
      <trkpt lat="45.14107" lon="3.98801">
        <ele>769</ele>
        <time>2019-07-09T19:45:25Z</time>
      </trkpt>
      <trkpt lat="45.14099" lon="3.98804">
        <ele>769</ele>
        <time>2019-07-09T19:45:25Z</time>
      </trkpt>
      <trkpt lat="45.13986" lon="3.98906">
        <ele>750</ele>
        <time>2019-07-09T19:45:25Z</time>
      </trkpt>
      <trkpt lat="45.1395" lon="3.98948">
        <ele>739</ele>
        <time>2019-07-09T19:45:25Z</time>
      </trkpt>
      <trkpt lat="45.13938" lon="3.98957">
        <ele>736</ele>
        <time>2019-07-09T19:45:25Z</time>
      </trkpt>
      <trkpt lat="45.13916" lon="3.9896">
        <ele>733</ele>
        <time>2019-07-09T19:45:25Z</time>
      </trkpt>
      <trkpt lat="45.13901" lon="3.98957">
        <ele>731</ele>
        <time>2019-07-09T19:45:25Z</time>
      </trkpt>
      <trkpt lat="45.13866" lon="3.9894">
        <ele>728</ele>
        <time>2019-07-09T19:45:25Z</time>
      </trkpt>
      <trkpt lat="45.13853" lon="3.98937">
        <ele>726</ele>
        <time>2019-07-09T19:45:25Z</time>
      </trkpt>
      <trkpt lat="45.13763" lon="3.98929">
        <ele>714</ele>
        <time>2019-07-09T19:45:25Z</time>
      </trkpt>
      <trkpt lat="45.13728" lon="3.98916">
        <ele>712</ele>
        <time>2019-07-09T19:45:25Z</time>
      </trkpt>
      <trkpt lat="45.13703" lon="3.98913">
        <ele>710</ele>
        <time>2019-07-09T19:45:25Z</time>
      </trkpt>
      <trkpt lat="45.13703" lon="3.98913">
        <ele>710</ele>
        <time>2019-07-09T19:45:25Z</time>
      </trkpt>
      <trkpt lat="45.13702" lon="3.98913">
        <ele>710</ele>
        <time>2019-07-09T19:45:25Z</time>
      </trkpt>
      <trkpt lat="45.1369" lon="3.98907">
        <ele>710</ele>
        <time>2019-07-09T19:45:25Z</time>
      </trkpt>
      <trkpt lat="45.13682" lon="3.98906">
        <ele>709</ele>
        <time>2019-07-09T19:45:25Z</time>
      </trkpt>
      <trkpt lat="45.1367" lon="3.98914">
        <ele>707</ele>
        <time>2019-07-09T19:45:25Z</time>
      </trkpt>
      <trkpt lat="45.13658" lon="3.98932">
        <ele>704</ele>
        <time>2019-07-09T19:45:25Z</time>
      </trkpt>
      <trkpt lat="45.13653" lon="3.98935">
        <ele>704</ele>
        <time>2019-07-09T19:45:25Z</time>
      </trkpt>
      <trkpt lat="45.13638" lon="3.98936">
        <ele>703</ele>
        <time>2019-07-09T19:45:25Z</time>
      </trkpt>
      <trkpt lat="45.13613" lon="3.98944">
        <ele>702</ele>
        <time>2019-07-09T19:45:25Z</time>
      </trkpt>
      <trkpt lat="45.13589" lon="3.98949">
        <ele>701</ele>
        <time>2019-07-09T19:45:25Z</time>
      </trkpt>
      <trkpt lat="45.13573" lon="3.98949">
        <ele>698</ele>
        <time>2019-07-09T19:45:25Z</time>
      </trkpt>
      <trkpt lat="45.13564" lon="3.98949">
        <ele>696</ele>
        <time>2019-07-09T19:45:25Z</time>
      </trkpt>
      <trkpt lat="45.13558" lon="3.98952">
        <ele>695</ele>
        <time>2019-07-09T19:45:25Z</time>
      </trkpt>
      <trkpt lat="45.13529" lon="3.98982">
        <ele>688</ele>
        <time>2019-07-09T19:45:25Z</time>
      </trkpt>
      <trkpt lat="45.13521" lon="3.98986">
        <ele>686</ele>
        <time>2019-07-09T19:45:25Z</time>
      </trkpt>
      <trkpt lat="45.13506" lon="3.98992">
        <ele>683</ele>
        <time>2019-07-09T19:45:25Z</time>
      </trkpt>
      <trkpt lat="45.13499" lon="3.98991">
        <ele>682</ele>
        <time>2019-07-09T19:45:25Z</time>
      </trkpt>
      <trkpt lat="45.13494" lon="3.98988">
        <ele>681</ele>
        <time>2019-07-09T19:45:25Z</time>
      </trkpt>
      <trkpt lat="45.1349" lon="3.98983">
        <ele>681</ele>
        <time>2019-07-09T19:45:25Z</time>
      </trkpt>
      <trkpt lat="45.13487" lon="3.98975">
        <ele>680</ele>
        <time>2019-07-09T19:45:25Z</time>
      </trkpt>
      <trkpt lat="45.13482" lon="3.98955">
        <ele>679</ele>
        <time>2019-07-09T19:45:25Z</time>
      </trkpt>
      <trkpt lat="45.13479" lon="3.9889">
        <ele>681</ele>
        <time>2019-07-09T19:45:25Z</time>
      </trkpt>
      <trkpt lat="45.13476" lon="3.98879">
        <ele>681</ele>
        <time>2019-07-09T19:45:25Z</time>
      </trkpt>
      <trkpt lat="45.13458" lon="3.98844">
        <ele>680</ele>
        <time>2019-07-09T19:45:25Z</time>
      </trkpt>
      <trkpt lat="45.13451" lon="3.98836">
        <ele>679</ele>
        <time>2019-07-09T19:45:25Z</time>
      </trkpt>
      <trkpt lat="45.13429" lon="3.98809">
        <ele>677</ele>
        <time>2019-07-09T19:45:25Z</time>
      </trkpt>
      <trkpt lat="45.13429" lon="3.98809">
        <ele>677</ele>
        <time>2019-07-09T19:45:25Z</time>
      </trkpt>
      <trkpt lat="45.13399" lon="3.98773">
        <ele>673</ele>
        <time>2019-07-09T19:45:25Z</time>
      </trkpt>
      <trkpt lat="45.13398" lon="3.9877">
        <ele>673</ele>
        <time>2019-07-09T19:45:25Z</time>
      </trkpt>
      <trkpt lat="45.13398" lon="3.9877">
        <ele>673</ele>
        <time>2019-07-09T19:45:25Z</time>
      </trkpt>
      <trkpt lat="45.13399" lon="3.98773">
        <ele>673</ele>
        <time>2019-07-09T19:45:25Z</time>
      </trkpt>
      <trkpt lat="45.13407" lon="3.988">
        <ele>674</ele>
        <time>2019-07-09T19:45:25Z</time>
      </trkpt>
      <trkpt lat="45.13455" lon="3.98978">
        <ele>674</ele>
        <time>2019-07-09T19:45:25Z</time>
      </trkpt>
      <trkpt lat="45.13456" lon="3.98981">
        <ele>674</ele>
        <time>2019-07-09T19:45:25Z</time>
      </trkpt>
      <trkpt lat="45.13456" lon="3.98981">
        <ele>674</ele>
        <time>2019-07-09T19:45:25Z</time>
      </trkpt>
      <trkpt lat="45.13459" lon="3.98992">
        <ele>674</ele>
        <time>2019-07-09T19:45:25Z</time>
      </trkpt>
      <trkpt lat="45.13463" lon="3.99008">
        <ele>674</ele>
        <time>2019-07-09T19:45:25Z</time>
      </trkpt>
      <trkpt lat="45.13469" lon="3.99035">
        <ele>674</ele>
        <time>2019-07-09T19:45:25Z</time>
      </trkpt>
      <trkpt lat="45.13468" lon="3.99038">
        <ele>674</ele>
        <time>2019-07-09T19:45:25Z</time>
      </trkpt>
      <trkpt lat="45.13465" lon="3.99048">
        <ele>673</ele>
        <time>2019-07-09T19:45:25Z</time>
      </trkpt>
      <trkpt lat="45.13462" lon="3.99066">
        <ele>672</ele>
        <time>2019-07-09T19:45:25Z</time>
      </trkpt>
      <trkpt lat="45.13462" lon="3.99068">
        <ele>672</ele>
        <time>2019-07-09T19:45:25Z</time>
      </trkpt>
    </trkseg>
  </trk>
</gpx>